User: anonymous   Login
Location: Raven Hill Discovery Center
(45.1336°N, 85.0553°W)
Time: 01:21:16
(UTC-05:00)
Language:

Cosmos 1470 - Orbit

View from above orbital plane
View from above orbital plane
View from above satellite
View from above satellite

Ground track
Ground track

The orbit data is extracted from the following two-line orbital elements,

1 14147U 83061A   14329.83571090  .00002610  00000-0  16861-3 0  1421
2 14147 082.5102 234.5517 0012836 246.8989 113.0887 15.07776006463842
Epoch (UTC): 25 November 2014 20:03:25
Eccentricity: 0.0012836
inclination: 82.5102°
perigee height: 534 km
apogee height: 552 km
right ascension of ascending node: 234.5517°
argument of perigee: 246.8989°
revolutions per day: 15.07776006
mean anomaly at epoch: 113.0887°
orbit number at epoch: 46384

The dashed part of the orbit path shows where the satellite is in the earth's shadow,  

DLR